Temperature
21 21 21 20 20 20 19 19 19 19 19 19 19 19 19 19 19 19 19 19 19 19 19 19 18 18 18 18 19 19 19 19 19 19 19 19 19 18 18 18 18 18 18
21 21 21 20 20 20 19 19 19 19 19 19 19 19 19 19 19 19 19 19 19 18 18 18 18 18 18 18 18 18 19 19 19 19 19 19 18 18 18 18 18 18 18
21 21 21 20 20 20 19 19 19 19 19 19 19 19 18 18 18 18 18 18 18 18 18 18 18 18 18 18 18 18 18 19 19 18 18 18 18 18 18 18 18 18 18
21 21 20 20 20 20 19 19 19 19 19 19 19 18 18 18 18 18 18 18 18 18 18 18 18 18 18 18 18 18 18 18 18 18 18 18 18 18 18 18 18 18 18
21 21 21 20 20 20 20 19 19 19 19 18 18 18 18 18 18 18 18 18 18 18 18 18 18 18 18 18 18 18 18 18 18 18 18 18 18 18 18 18 18 18 18
21 21 21 21 20 20 20 19 19 19 19 18 18 18 18 18 18 18 18 18 18 18 18 18 18 18 18 18 18 18 18 18 18 18 18 18 18 18 18 18 18 18 18
22 21 21 21 20 20 20 19 19 19 19 19 18 18 19 19 18 18 18 18 18 18 18 18 18 19 18 18 18 18 18 18 18 18 18 18 18 18 18 18 18 18 18
22 21 21 21 20 20 20 19 19 19 19 19 19 19 19 19 18 18 18 18 18 18 18 18 19 19 19 19 19 18 18 18 18 18 18 18 18 18 18 18 18 18 18
22 21 21 20 20 20 20 19 19 19 19 19 19 19 19 19 19 19 18 18 18 18 18 19 19 19 19 19 19 19 18 18 18 18 18 18 18 18 18 18 18 18 18
22 21 21 20 20 20 20 20 19 19 19 19 19 19 19 19 19 19 19 19 19 19 19 19 19 19 19 19 19 19 18 18 18 18 18 18 18 18 18 18 18 18 18
22 21 21 20 20 20 20 19 19 19 19 19 19 19 19 18 18 19 19 19 19 19 19 19 19 19 19 19 19 19 18 18 18 18 18 18 18 18 18 18 18 18 17
21 21 21 20 20 20 20 19 19 19 19 19 19 19 19 18 18 18 19 19 19 19 19 19 19 19 19 18 18 18 18 18 18 18 18 18 18 18 18 18 18 17 17
21 21 21 20 20 20 20 20 19 19 19 19 19 19 19 19 19 19 19 19 19 19 19 18 18 18 18 18 18 18 18 18 18 18 18 18 18 18 18 18 18 18 17
22 21 21 20 20 20 20 20 20 19 19 19 19 19 19 19 19 19 19 19 19 19 18 18 18 18 18 18 18 18 18 19 18 18 18 18 18 18 18 18 18 17 17
22 21 21 20 20 20 20 20 20 20 19 19 19 19 19 19 19 19 18 19 18 18 18 19 18 18 18 18 18 19 18 18 18 18 18 18 18 18 18 18 18 17 17
22 21 21 20 20 20 20 20 19 19 20 19 19 19 19 19 19 19 19 19 18 18 18 18 18 19 18 19 19 18 18 18 18 18 18 18 18 18 18 18 18 18 18
22 21 21 20 20 20 20 19 19 20 20 19 19 19 19 19 19 19 19 18 18 18 18 19 18 19 19 19 19 19 19 19 18 18 18 18 18 18 18 18 18 18 18
22 21 21 21 20 20 20 20 20 20 20 19 19 19 19 19 19 19 19 19 19 19 19 19 19 19 19 19 19 19 19 19 19 18 18 18 18 18 18 18 18 18 18
22 21 21 21 20 20 20 20 20 20 20 19 19 19 19 19 19 19 19 19 19 19 18 18 19 19 19 19 19 19 19 19 19 19 19 18 18 18 18 18 18 18 18
21 21 21 20 20 20 20 20 20 19 19 19 19 19 19 19 19 19 19 19 19 19 18 18 19 19 19 19 19 19 19 19 19 19 19 19 18 18 18 18 18 17 17
21 21 21 21 20 20 20 20 19 19 19 19 19 19 19 19 19 19 19 19 18 18 18 19 19 19 19 19 19 19 19 19 19 19 19 19 19 18 18 18 17 17 17
22 21 21 21 20 20 20 20 20 19 19 19 19 19 19 19 19 19 19 18 18 18 18 18 18 18 19 19 19 19 19 19 19 19 19 19 19 18 18 18 18 17 17
22 21 21 21 20 20 20 20 20 19 19 19 19 19 19 19 19 19 19 18 18 18 18 18 18 18 19 19 19 19 18 19 19 19 19 19 19 18 18 18 18 17 17
22 21 21 21 20 20 20 20 19 19 19 19 19 19 19 19 19 19 18 18 18 18 18 18 18 18 18 18 18 19 18 18 19 19 19 19 19 18 18 18 17 17 17
22 22 21 21 20 20 20 19 19 19 19 19 19 19 19 19 19 18 18 18 18 18 18 18 18 18 18 18 18 18 18 18 19 18 18 19 18 18 18 18 17 17 17
22 22 21 21 20 20 20 19 19 19 19 19 19 19 19 19 19 18 18 18 18 18 18 18 18 18 18 18 18 18 18 18 18 18 18 18 18 18 18 18 17 17 17
Wind_Speed
8 8 8 6 6 6 6 5 5 5 5 5 5 5 5 5 5 5 5 5 5 6 6 6 5 5 5 4 3 3 3 4 5 6 7 8 7 7 7 7 7 7 9
9 8 8 7 7 6 5 5 5 5 5 5 5 5 5 5 5 5 5 5 5 5 5 5 5 5 5 4 4 3 3 3 5 7 8 9 9 8 8 8 7 6 9
9 9 8 8 7 6 6 6 6 5 5 5 5 5 5 6 6 5 5 4 4 4 5 5 5 5 5 5 4 4 3 4 6 7 8 7 9 10 10 9 8 8 9
9 9 8 9 7 7 6 6 6 6 6 5 5 5 6 6 6 5 4 4 4 4 4 4 5 5 5 5 4 4 4 5 7 8 7 7 7 10 11 9 9 8 8
9 10 10 10 8 7 7 7 7 7 6 6 6 5 5 5 5 5 4 4 3 3 3 3 4 5 5 5 5 4 5 6 8 9 6 6 6 9 11 10 10 9 8
10 11 10 10 9 8 7 7 7 6 6 5 5 4 4 5 5 4 4 3 3 3 2 2 3 5 6 6 5 5 6 6 7 7 6 7 7 10 11 10 9 8 8
9 10 9 10 9 8 8 8 7 6 6 6 5 4 4 5 6 4 4 3 3 2 2 2 3 5 6 6 6 6 6 7 7 5 6 7 9 12 12 11 10 8 8
8 8 9 10 10 8 8 8 7 7 6 6 5 4 5 6 6 5 5 4 3 3 2 2 3 5 6 6 7 7 6 6 6 6 6 7 9 12 12 11 10 9 8
9 8 7 8 8 7 8 8 8 8 7 6 5 5 5 6 7 6 6 4 4 3 2 2 3 4 6 6 7 7 7 6 5 3 5 6 10 11 11 10 10 10 9
8 8 7 7 6 5 7 8 8 9 8 7 6 5 5 6 7 7 6 5 5 4 3 3 4 4 6 7 7 7 7 6 5 3 4 6 10 11 10 9 10 10 9
8 7 7 7 5 5 6 8 8 9 8 6 5 6 5 3 4 6 6 7 6 5 5 4 4 4 5 6 8 8 7 5 4 3 5 8 9 9 9 9 9 9 8
7 7 7 6 5 4 5 5 5 6 6 5 4 3 3 2 2 3 6 6 7 6 6 6 5 4 4 4 6 8 6 6 4 4 6 10 9 9 8 8 8 8 7
6 8 7 7 5 5 4 4 3 3 4 4 5 4 3 2 2 3 3 4 5 5 4 4 5 4 3 3 3 3 4 2 3 4 7 12 10 9 8 8 8 7 7
7 8 7 7 6 5 5 3 3 3 3 4 5 4 2 2 2 2 1 2 1 1 3 2 1 1 1 2 2 2 1 2 3 5 7 11 10 9 9 9 8 7 7
7 7 8 7 7 6 5 3 4 4 4 4 4 4 3 3 2 2 2 2 1 1 2 2 1 1 0 0 1 1 1 2 3 5 6 10 10 10 9 8 8 8 8
7 8 7 6 6 5 4 3 3 3 4 4 5 5 3 3 3 2 3 2 2 2 2 1 1 1 1 1 1 1 1 1 3 4 6 8 11 11 10 9 8 8 8
8 7 6 6 7 5 4 3 3 3 4 4 4 5 5 4 3 2 2 2 2 1 1 1 1 0 1 1 1 1 1 1 2 3 4 6 7 10 11 10 9 8 8
8 7 6 6 7 5 4 3 3 3 4 3 4 4 5 4 3 1 1 2 1 1 1 1 1 0 1 1 1 1 1 2 2 3 3 5 6 7 10 11 10 9 8
8 7 6 6 6 5 3 3 3 3 3 3 4 4 4 3 3 2 2 2 1 1 1 1 2 1 0 1 1 1 1 2 2 2 3 4 5 6 8 10 12 10 9
8 7 5 5 4 3 2 2 2 3 3 3 3 4 4 3 3 2 1 1 1 2 2 2 2 1 0 1 1 1 0 1 1 1 2 3 4 5 6 7 8 8 10
8 6 5 4 4 2 1 1 1 2 2 2 3 4 3 3 2 2 2 1 2 2 2 1 1 2 1 1 0 1 1 1 1 1 1 1 2 4 5 6 6 5 5
8 6 5 3 3 2 2 2 1 1 1 2 3 3 3 2 1 2 2 2 2 2 2 1 1 2 2 0 0 1 1 0 1 2 2 2 2 2 3 5 5 5 4
8 7 5 4 3 2 2 1 1 1 1 1 2 2 2 2 1 2 1 2 1 1 1 1 1 2 2 2 0 0 0 1 1 1 1 2 2 2 2 3 4 4 4
8 7 6 5 4 3 1 1 1 1 1 1 1 1 2 1 1 1 1 0 1 1 1 2 2 2 2 2 2 1 0 1 1 1 1 1 2 2 2 1 2 4 4
8 7 7 5 4 3 1 1 1 1 1 1 1 1 1 1 1 0 1 1 0 0 1 1 2 2 3 3 2 2 1 1 2 1 1 1 0 1 2 2 1 2 4
7 7 7 6 4 3 2 1 1 2 2 2 2 1 0 1 1 1 1 1 1 1 1 1 1 2 2 2 3 3 2 1 2 1 1 1 1 1 2 2 1 1 3
Wind_Direction
97 104 115 109 103 102 109 118 125 126 124 122 124 129 131 128 129 128 125 127 131 138 143 143 142 145 147 149 150 151 140 145 155 157 157 155 158 159 159 164 172 169 156
95 102 111 107 103 99 103 113 119 125 127 127 131 135 139 139 138 135 128 130 138 147 151 152 153 151 151 152 151 157 155 168 183 180 175 170 171 172 172 174 179 163 157
99 107 110 105 99 95 98 105 108 116 122 127 134 136 137 136 133 132 135 140 148 157 160 161 163 158 161 161 160 168 184 201 193 186 187 182 175 177 175 175 175 169 163
100 106 105 110 101 96 100 104 106 110 112 121 129 133 134 134 132 136 142 148 151 154 158 166 163 165 167 170 172 182 202 209 200 193 194 192 177 169 170 172 171 171 172
88 99 109 118 111 106 106 110 110 109 109 115 124 130 138 141 146 152 158 155 152 148 147 146 166 174 175 177 185 200 214 210 205 208 191 174 156 156 167 173 170 171 173
87 97 113 120 117 115 113 113 112 113 114 116 116 121 135 149 153 156 161 162 157 149 143 151 168 181 186 189 196 208 219 221 210 207 178 168 156 161 166 169 169 172 174
82 96 111 117 118 121 120 119 119 119 119 116 110 109 125 144 155 158 159 157 160 167 171 187 191 192 195 200 203 211 223 227 224 200 171 165 162 163 167 172 176 176 178
79 92 113 117 117 120 126 126 128 130 126 121 119 116 131 148 156 163 163 161 168 183 194 208 208 201 199 204 209 215 221 229 227 193 164 157 164 168 168 173 179 181 183
76 83 98 113 119 122 122 128 136 137 138 138 135 133 143 157 163 164 163 165 172 179 190 196 197 200 204 210 214 216 222 230 242 214 163 157 165 168 167 173 178 181 182
65 73 77 88 105 121 131 132 136 142 145 150 152 151 155 165 171 172 167 168 176 179 184 184 187 199 209 212 215 215 224 235 235 190 148 155 162 166 169 173 176 180 186
64 66 68 65 74 90 110 120 137 146 146 153 155 159 163 171 169 168 156 163 173 178 183 187 190 197 211 213 216 221 227 226 206 147 135 147 158 166 169 169 174 185 192
55 63 64 60 50 67 84 107 125 128 136 144 125 133 139 153 163 122 137 165 171 178 181 189 195 196 207 210 211 219 219 214 183 144 144 153 159 166 168 172 181 190 194
67 61 64 65 49 43 56 88 99 109 118 119 105 98 92 83 94 104 125 150 177 178 180 179 194 201 205 190 188 201 208 192 136 131 140 150 159 166 174 179 183 187 192
77 72 62 61 57 45 52 65 98 96 101 100 103 81 75 80 53 86 96 120 163 147 137 137 141 156 155 170 194 186 181 138 132 132 148 153 160 170 176 182 189 193 193
84 81 75 64 58 46 49 39 71 77 81 88 90 84 61 80 62 53 54 48 40 80 104 99 102 89 94 236 195 145 121 129 140 143 158 166 172 177 182 188 193 192 194
81 80 79 78 80 62 62 57 60 71 87 85 88 84 69 79 77 57 67 51 44 39 56 72 110 136 163 187 177 135 138 156 142 157 161 175 184 185 189 195 196 194 196
86 83 87 91 86 76 64 54 67 69 83 85 92 91 78 70 68 58 57 67 52 55 56 62 20 13 155 175 172 170 165 146 144 152 164 170 178 188 193 193 192 193 195
92 85 77 76 86 85 77 55 60 62 75 83 87 90 87 76 67 58 62 61 81 100 93 104 118 62 31 360 56 310 158 148 158 158 168 171 172 176 187 194 194 194 200
98 93 84 74 79 80 83 79 73 77 72 78 84 83 82 78 62 49 65 52 52 72 49 8 59 72 94 338 294 224 209 159 166 187 177 164 162 165 168 187 193 195 204
106 100 93 88 88 97 88 87 78 77 74 82 86 84 77 64 60 44 78 55 39 69 46 26 10 352 335 255 286 43 255 142 161 140 166 157 156 170 171 166 182 199 210
115 110 105 96 90 85 83 82 75 79 89 93 101 93 88 79 61 52 39 39 45 72 63 32 12 320 289 301 329 324 280 173 125 138 148 129 149 150 145 147 165 178 182
129 127 122 117 109 109 86 79 103 87 92 96 94 101 100 93 67 77 57 17 32 41 52 28 350 321 307 354 286 296 314 349 290 203 156 170 145 140 144 158 163 167 163
137 135 130 118 105 92 90 94 89 100 90 73 105 117 115 106 82 54 67 40 5 34 46 324 323 335 326 315 44 77 348 325 294 261 187 151 142 132 142 145 154 157 160
139 132 124 120 113 99 94 59 53 77 57 43 72 92 111 103 104 100 100 71 333 18 28 322 19 331 318 321 314 289 161 144 267 297 296 194 167 152 140 142 141 149 145
139 135 127 119 112 109 100 63 22 16 32 50 52 87 114 131 119 169 144 115 38 8 19 353 355 336 341 341 336 331 327 277 259 241 266 290 254 143 150 159 169 150 144
143 137 133 124 117 118 113 77 50 358 15 20 358 358 214 145 151 137 105 89 61 9 17 351 341 330 335 345 340 344 347 329 323 312 300 295 280 185 144 144 161 150 156
Height
1484 1482 1480 1479 1478 1476 1476 1477 1478 1480 1482 1484 1485 1487 1489 1490 1492 1494 1495 1497 1498 1499 1500 1502 1503 1504 1506 1507 1508 1509 1510 1512 1512 1514 1516 1518 1519 1521 1523 1524 1526 1528 1530
1483 1481 1480 1480 1478 1477 1477 1478 1479 1480 1482 1483 1485 1486 1488 1490 1492 1493 1495 1496 1498 1499 1500 1501 1502 1504 1505 1506 1507 1508 1509 1510 1511 1512 1514 1516 1518 1520 1522 1524 1526 1527 1529
1482 1481 1480 1480 1479 1478 1478 1478 1479 1480 1482 1483 1484 1486 1488 1490 1491 1493 1495 1496 1497 1499 1500 1501 1502 1503 1504 1505 1506 1507 1507 1507 1507 1509 1511 1514 1517 1519 1521 1523 1525 1526 1528
1483 1481 1480 1480 1479 1479 1479 1479 1480 1481 1482 1483 1484 1485 1487 1489 1491 1492 1494 1496 1497 1498 1499 1500 1501 1502 1503 1504 1505 1505 1505 1504 1504 1507 1510 1513 1515 1518 1520 1522 1524 1526 1527
1484 1482 1481 1480 1480 1480 1480 1480 1481 1481 1482 1483 1484 1485 1486 1488 1490 1492 1494 1495 1497 1498 1499 1500 1501 1502 1503 1503 1504 1504 1504 1503 1503 1506 1509 1511 1515 1517 1519 1521 1523 1525 1526
1485 1483 1482 1481 1481 1481 1481 1481 1481 1482 1483 1484 1484 1484 1484 1486 1489 1492 1494 1495 1497 1498 1499 1499 1500 1501 1502 1502 1503 1503 1503 1502 1503 1506 1508 1511 1514 1516 1518 1520 1522 1524 1525
1487 1485 1484 1483 1482 1482 1482 1482 1482 1483 1484 1485 1485 1484 1484 1485 1489 1492 1494 1495 1497 1498 1498 1499 1499 1500 1501 1501 1502 1502 1502 1503 1504 1506 1509 1512 1514 1516 1518 1520 1521 1523 1524
1489 1487 1485 1484 1483 1483 1482 1482 1483 1484 1485 1485 1486 1485 1485 1486 1490 1492 1494 1496 1497 1498 1498 1498 1498 1499 1500 1500 1501 1502 1502 1503 1505 1508 1509 1512 1513 1516 1517 1519 1520 1521 1523
1490 1489 1487 1486 1485 1484 1483 1483 1483 1484 1486 1487 1488 1488 1488 1490 1492 1494 1495 1496 1497 1498 1498 1498 1497 1498 1499 1500 1501 1502 1502 1503 1505 1507 1509 1511 1513 1515 1516 1517 1519 1520 1522
1493 1491 1489 1488 1487 1485 1485 1484 1485 1485 1487 1488 1490 1491 1492 1493 1494 1496 1497 1497 1498 1498 1498 1498 1498 1498 1499 1500 1501 1502 1503 1504 1505 1507 1509 1511 1512 1514 1515 1517 1518 1519 1520
1494 1493 1492 1490 1489 1487 1487 1486 1486 1487 1489 1490 1492 1493 1494 1495 1496 1497 1498 1498 1499 1499 1499 1499 1499 1499 1499 1500 1501 1502 1503 1504 1505 1507 1508 1510 1511 1513 1514 1516 1517 1518 1519
1496 1495 1494 1492 1491 1490 1489 1488 1489 1490 1492 1493 1494 1495 1496 1497 1498 1499 1499 1499 1499 1499 1499 1500 1500 1500 1500 1501 1501 1502 1503 1504 1506 1507 1508 1509 1511 1512 1513 1514 1515 1516 1518
1498 1497 1495 1494 1492 1491 1490 1490 1490 1492 1494 1495 1496 1497 1498 1499 1500 1500 1501 1500 1500 1500 1500 1500 1501 1501 1501 1502 1503 1504 1505 1506 1506 1507 1508 1509 1510 1512 1513 1513 1514 1515 1516
1499 1498 1497 1496 1494 1493 1491 1491 1492 1494 1496 1497 1497 1499 1499 1500 1501 1502 1502 1501 1501 1502 1502 1501 1502 1503 1503 1503 1504 1505 1506 1506 1507 1507 1508 1509 1510 1510 1511 1512 1513 1514 1514
1500 1500 1499 1498 1496 1495 1494 1494 1495 1496 1497 1498 1499 1500 1501 1501 1502 1503 1502 1502 1502 1503 1503 1502 1503 1504 1504 1505 1505 1506 1506 1506 1507 1507 1508 1508 1509 1510 1510 1511 1512 1512 1513
1502 1501 1501 1500 1499 1497 1496 1496 1497 1499 1500 1500 1501 1501 1502 1503 1503 1503 1503 1503 1503 1503 1503 1503 1504 1505 1505 1506 1506 1506 1506 1507 1507 1507 1507 1507 1508 1509 1509 1510 1511 1511 1512
1503 1503 1502 1502 1501 1500 1500 1500 1501 1501 1502 1503 1503 1503 1503 1504 1504 1504 1504 1504 1504 1504 1504 1504 1504 1505 1506 1506 1506 1506 1506 1507 1507 1507 1507 1506 1507 1507 1508 1509 1509 1510 1510
1504 1504 1504 1504 1503 1503 1502 1502 1503 1503 1504 1504 1505 1504 1504 1505 1505 1505 1505 1505 1505 1505 1505 1505 1505 1505 1506 1506 1506 1506 1506 1506 1506 1506 1506 1506 1506 1506 1507 1507 1508 1509 1509
1505 1505 1505 1505 1505 1505 1504 1504 1504 1505 1505 1506 1506 1506 1506 1506 1506 1506 1506 1505 1505 1505 1505 1505 1506 1506 1506 1506 1506 1506 1506 1506 1506 1506 1505 1506 1506 1506 1506 1506 1507 1508 1508
1505 1506 1506 1506 1506 1506 1506 1506 1506 1506 1507 1507 1506 1506 1506 1506 1506 1506 1506 1506 1506 1505 1505 1506 1506 1506 1506 1506 1506 1506 1506 1506 1506 1505 1505 1505 1505 1505 1505 1505 1506 1506 1506
1505 1506 1507 1507 1507 1507 1507 1507 1507 1507 1508 1508 1508 1507 1507 1507 1507 1506 1506 1506 1506 1505 1505 1506 1506 1506 1506 1506 1506 1506 1505 1505 1505 1505 1505 1505 1505 1505 1505 1504 1504 1504 1504
1505 1506 1506 1507 1507 1507 1507 1507 1508 1508 1508 1508 1508 1508 1507 1507 1507 1507 1506 1506 1506 1506 1506 1505 1505 1505 1506 1506 1506 1505 1505 1506 1505 1505 1504 1504 1505 1505 1505 1504 1504 1503 1503
1505 1505 1506 1506 1507 1507 1507 1507 1508 1508 1508 1508 1508 1508 1508 1507 1507 1507 1506 1506 1506 1506 1505 1505 1505 1505 1505 1505 1506 1506 1505 1505 1504 1505 1504 1504 1504 1504 1504 1504 1503 1502 1502
1504 1505 1506 1506 1506 1507 1507 1507 1508 1508 1508 1508 1508 1508 1508 1507 1507 1507 1506 1506 1506 1505 1505 1505 1505 1504 1504 1504 1504 1505 1505 1504 1504 1504 1504 1503 1503 1503 1503 1503 1502 1501 1501
1503 1504 1505 1506 1506 1506 1507 1507 1507 1508 1508 1508 1508 1508 1508 1507 1507 1507 1506 1506 1505 1505 1505 1504 1504 1503 1503 1503 1503 1504 1504 1503 1503 1503 1503 1503 1503 1502 1501 1501 1501 1500 1499
1502 1503 1504 1505 1505 1506 1506 1506 1507 1507 1507 1507 1507 1507 1507 1507 1507 1506 1506 1506 1505 1504 1504 1504 1503 1503 1502 1502 1502 1502 1503 1502 1502 1502 1502 1501 1501 1501 1500 1500 1499 1499 1498